Meath Environmental Platform

Observations for Trim Market St

Time AQI Temp °C Hum % Pres Pa CO μg/m³ H₂S μg/m³ NO μg/m³ NO₂ μg/m³ O₃ μg/m³ SO₂ μg/m³ PM1 μg/m³ PM2.5 μg/m³ PM10 μg/m³
Wednesday 15 July 2026
16:28 1 36.6 30 66,610 0 0 0 0 37.09 1.57 5.7 9.27 12.7
16:27 1 36.6 30 66,617 0 0 0 2.88 28.5 0.82 5.7 9.28 10.98
16:26 1 36.6 30 66,598 0 0 0 0 27.45 0.79 7.13 11.98 17.88
16:25 1 36.7 30 66,608 0 0 0 0 28.73 1.35 7.13 10.9 13.57
16:24 1 36.7 30 66,617 0 0 0 0 24.55 0.96 4.28 8.18 9.25
16:23 1 36.7 30 66,600 0 0 0 2.11 24.49 1.2 4.99 10.34 12.69
16:22 1 36.6 30 66,635 0 0 0 2.93 30.78 0.95 6.41 10.34 12.69
16:21 1 36.7 30 66,623 0 0 0 3.91 19.95 0.79 4.99 9.25 12.69
16:20 1 36.7 31 66,635 0 0 0 0 30.62 1.22 6.41 11.4 16.12
16:19 1 36.7 31 66,627 0 1.26 0 9.1 32.17 0.55 5.7 9.79 13.55
16:18 1 36.7 30 66,641 0 0 0 19.62 18.84 0 7.84 12.51 17.01
16:16 1 36.7 30 66,629 0 0 0 0 35.64 1.37 6.41 10.36 12.71
16:15 1 36.7 30 66,643 0 0 0 2.55 38.35 1.28 4.99 8.73 10.12
16:14 1 36.8 30 66,633 0 0 0 2.25 33.35 0.83 5.7 9.29 12.71
16:13 1 36.8 30 66,621 0 0 0 0 22.8 1.09 6.41 9.83 11.85
16:11 1 36.9 30 66,651 0 0 0 1.9 29.04 1.36 4.99 9.82 13.57
16:10 1 37 30 66,667 0 0 0 0.88 29.77 1.3 6.41 9.83 12.71
16:09 1 36.9 30 66,667 0 0 0 0.61 28.75 1.15 5.7 10.91 16.17
16:07 1 37 30 66,694 0 0 0 1.31 21.88 0.93 6.41 10.38 13.58
16:06 1 37.1 30 66,700 0 0 0 0 33.28 1.85 7.13 12 15.31